THORAD DELTA 1 DEB

Satellite information

Favourite Embed

Satellite Type and Status

DEBRISIN ORBIT

Key statistics

Satellite THORAD DELTA 1 DEB at a glance.

Uptime

18663

Days in orbit

Revolutions

≈ 12.5

Per day

Orbit

SSO

Sun Synchronous Orbit

Inclination

102.0

Latest

Satellite identification and parameters

Extended collection of information and parameters for THORAD DELTA 1 DEB.

Object identification

Identified? True

Debris? True

Object name: THORAD DELTA 1 DEB

International designator: 1974-089BP

Object number (NORAD): 8306

Object ID (CCSDS): 8306

Country: UNITED STATES OF AMERICA (US)

Current information (Y/N): Y

RCS size: SMALL

Orbital parameters

Period: 115.067 minutes

Inclination: 101.9816 deg

SMA: 7836.576 km

Apoapsis: 1517.395 km

Periapsis: 1399.487 km

RAAN: 122.1007 deg

Eccentricy: 0.0075229

Argument of periapsis: 120.0033 deg

Mean anomaly: 32.1295 deg

Mean motion: 12.51449298 rev/day

Mean motion (dot): 0.00000187 rev/day2

B* drag term: 0.0014878502 1/REarth

Two-line elements (TLE)

Creation date: Dec. 19, 2025, 2:08 a.m.

Reference frame: TEME

Reference center: EARTH

Epoch: Dec. 18, 2025, 8:20 p.m. UTC

TLE line 0: 0 THORAD DELTA 1 DEB

TLE line 1: 1 08306U 74089BP 25352.84756100 .00000187 00000-0 14879-2 0 9990

TLE line 2: 2 08306 101.9816 122.1007 0075229 120.0033 32.1295 12.51449298324390

Live tracking on map

Real-time ground track for satellite THORAD DELTA 1 DEB.

In-orbit conjunctions

A list of the most updated potential collisions computed for object THORAD DELTA 1 DEB.

Target Orbit TCA Probability of collision Miss distance Type
COSMOS 1827 LEO 2024-12-05 19:36:58 0.0001024008 398.0 (m) PAYLOAD
COSMOS 1801 LEO 2024-07-03 08:10:38 0.0002623341 533.0 (m) PAYLOAD
DELTA 1 DEB SSO 2024-05-31 12:34:38 0.0001442705 166.0 (m) DEBRIS

Associated space launch

Meteorological satellite using radiometric imaging

THORAD DELTA 1 DEB was lifted into orbit during the mission ‘Delta 2310 | NOAA 4’, on board a Delta 2310 space rocket.

The launch took place on Nov. 15, 1974, 5:11 p.m. from Space Launch Complex 2W.

For more information about the launch, click the button.

Launch to space Delta 2310 | NOAA 4
Delta 2310 | NOAA 4

Agency: N/A

Status: Launch Successful

Launch date: Nov. 15, 1974, 5:11 p.m. UTC

Rocket: Delta 2310

Launch pad: Space Launch Complex 2W

Location: Vandenberg SFB, CA, USA

...

Latest news about this satellite

There are no fresh news available about this satellite. Check back as we update our databases every day.


Newsletter sign-up

Weekly statistics, charts and insights to help you stay on top of the space industry.